VLG4DU LEZL-LEBL

Flight info

Callsign VLG4DU
Flight time 1h 13m
Altitude 32000
Route BUDIT M445 BEGOX N860 VLC L34 CASIM N608 MATEX
Aircraft A321/M-SDFGHILORVWXY/LB1

Departure

Time 2026-04-15 10:12
Airport Seville Airport (LEZL)

Arrival

Time 2026-04-15 11:26
Airport Josep Tarradellas Barcelona-El Prat Airport (LEBL)
Time Latitude Longitude Altitude Speed Heading
2026-04-15 09:55 37.42297 -5.89837 93 ft 0 kts 314°
2026-04-15 10:05 37.42289 -5.89826 93 ft 2 kts 314°
2026-04-15 10:06 37.42278 -5.89813 93 ft 2 kts 314°
2026-04-15 10:06 37.42268 -5.89799 93 ft 2 kts 314°
2026-04-15 10:06 37.42257 -5.89786 92 ft 1 kts 296°
2026-04-15 10:06 37.42256 -5.89768 92 ft 2 kts 248°
2026-04-15 10:07 37.42265 -5.89754 93 ft 1 kts 216°
2026-04-15 10:07 37.42269 -5.89750 93 ft 0 kts 220°
2026-04-15 10:08 37.42250 -5.89771 92 ft 9 kts 223°
2026-04-15 10:09 37.42184 -5.89858 91 ft 15 kts 225°
2026-04-15 10:09 37.42106 -5.89957 90 ft 16 kts 224°
2026-04-15 10:09 37.42041 -5.90078 88 ft 15 kts 225°
2026-04-15 10:09 37.41987 -5.90141 87 ft 10 kts 267°
2026-04-15 10:10 37.41980 -5.90242 87 ft 12 kts 266°
2026-04-15 10:10 37.41979 -5.90354 87 ft 13 kts 270°
2026-04-15 10:10 37.41979 -5.90485 84 ft 16 kts 269°
2026-04-15 10:10 37.41978 -5.90628 84 ft 16 kts 270°
2026-04-15 10:11 37.41978 -5.90780 81 ft 18 kts 269°
2026-04-15 10:11 37.41968 -5.90941 81 ft 18 kts 247°
2026-04-15 10:11 37.41905 -5.91081 81 ft 18 kts 240°
2026-04-15 10:11 37.41815 -5.91189 78 ft 18 kts 171°
2026-04-15 10:12 37.41787 -5.91022 80 ft 38 kts 89°
2026-04-15 10:12 37.41791 -5.90360 84 ft 110 kts 90°
2026-04-15 10:12 37.41795 -5.89142 195 ft 156 kts 88°
2026-04-15 10:12 37.41794 -5.87812 828 ft 155 kts 87°
2026-04-15 10:13 37.41802 -5.86468 1464 ft 155 kts 87°
2026-04-15 10:13 37.41813 -5.85131 1817 ft 160 kts 87°
2026-04-15 10:13 37.41826 -5.83681 2047 ft 173 kts 87°
2026-04-15 10:13 37.41896 -5.82106 2322 ft 186 kts 82°
2026-04-15 10:14 37.42109 -5.80469 2602 ft 200 kts 78°
2026-04-15 10:14 37.42379 -5.78681 2897 ft 215 kts 78°
2026-04-15 10:14 37.42718 -5.76762 3143 ft 236 kts 73°
2026-04-15 10:14 37.43268 -5.74750 3507 ft 252 kts 66°
2026-04-15 10:15 37.43973 -5.72698 4084 ft 260 kts 65°
2026-04-15 10:15 37.44696 -5.70651 4806 ft 263 kts 65°
2026-04-15 10:15 37.45438 -5.68554 5536 ft 266 kts 65°
2026-04-15 10:15 37.46183 -5.66441 6274 ft 269 kts 65°
2026-04-15 10:16 37.46936 -5.64294 7012 ft 272 kts 65°
2026-04-15 10:16 37.47690 -5.62140 7726 ft 275 kts 64°
2026-04-15 10:16 37.48451 -5.59962 8419 ft 278 kts 64°
2026-04-15 10:16 37.49223 -5.57753 9093 ft 281 kts 64°
2026-04-15 10:17 37.50008 -5.55505 9774 ft 284 kts 64°
2026-04-15 10:17 37.50802 -5.53235 10426 ft 288 kts 63°
2026-04-15 10:17 37.51614 -5.50913 10843 ft 300 kts 63°
2026-04-15 10:17 37.52478 -5.48442 11131 ft 316 kts 63°
2026-04-15 10:18 37.53377 -5.45865 11476 ft 330 kts 63°
2026-04-15 10:18 37.54306 -5.43193 12067 ft 334 kts 63°
2026-04-15 10:18 37.55225 -5.40543 12685 ft 337 kts 63°
2026-04-15 10:18 37.56167 -5.37827 13270 ft 341 kts 63°
2026-04-15 10:19 37.57115 -5.35092 13843 ft 344 kts 63°
2026-04-15 10:19 37.58080 -5.32310 14429 ft 348 kts 63°
2026-04-15 10:19 37.59052 -5.29506 14978 ft 352 kts 64°
2026-04-15 10:19 37.59967 -5.26633 15522 ft 357 kts 69°
2026-04-15 10:20 37.60598 -5.23584 16059 ft 362 kts 77°
2026-04-15 10:20 37.60931 -5.20425 16587 ft 367 kts 82°
2026-04-15 10:20 37.61161 -5.17213 17117 ft 371 kts 83°
2026-04-15 10:20 37.61371 -5.14002 17637 ft 374 kts 83°
2026-04-15 10:21 37.61589 -5.10702 18147 ft 377 kts 83°
2026-04-15 10:21 37.61807 -5.07427 18637 ft 380 kts 83°
2026-04-15 10:21 37.62033 -5.04081 19115 ft 384 kts 83°
2026-04-15 10:21 37.62260 -5.00747 19588 ft 387 kts 83°
2026-04-15 10:22 37.62490 -4.97379 20044 ft 391 kts 83°
2026-04-15 10:22 37.62725 -4.93933 20513 ft 394 kts 83°
2026-04-15 10:22 37.62957 -4.90529 20964 ft 397 kts 83°
2026-04-15 10:22 37.63196 -4.87021 21427 ft 399 kts 83°
2026-04-15 10:23 37.63430 -4.83558 21856 ft 402 kts 83°
2026-04-15 10:23 37.63667 -4.80049 22293 ft 405 kts 83°
2026-04-15 10:23 37.63903 -4.76529 22710 ft 407 kts 83°
2026-04-15 10:23 37.64142 -4.72964 23133 ft 410 kts 83°
2026-04-15 10:24 37.64382 -4.69349 23544 ft 413 kts 83°
2026-04-15 10:24 37.64619 -4.65768 23934 ft 416 kts 83°
2026-04-15 10:24 37.64860 -4.62112 24332 ft 418 kts 83°
2026-04-15 10:24 37.65099 -4.58472 24721 ft 421 kts 83°
2026-04-15 10:25 37.65338 -4.54809 25106 ft 423 kts 83°
2026-04-15 10:25 37.65579 -4.51100 25480 ft 425 kts 83°
2026-04-15 10:25 37.65818 -4.47415 25832 ft 428 kts 83°
2026-04-15 10:25 37.66060 -4.43647 26182 ft 431 kts 83°
2026-04-15 10:26 37.66301 -4.39898 26525 ft 433 kts 83°
2026-04-15 10:26 37.66545 -4.36078 26869 ft 436 kts 83°
2026-04-15 10:26 37.66784 -4.32289 27203 ft 438 kts 84°
2026-04-15 10:26 37.67023 -4.28492 27521 ft 440 kts 84°
2026-04-15 10:27 37.67264 -4.24664 27835 ft 442 kts 83°
2026-04-15 10:27 37.67508 -4.20757 28168 ft 444 kts 84°
2026-04-15 10:27 37.67747 -4.16908 28477 ft 446 kts 84°
2026-04-15 10:27 37.67987 -4.13023 28763 ft 448 kts 84°
2026-04-15 10:28 37.68230 -4.09079 29049 ft 450 kts 84°
2026-04-15 10:28 37.68469 -4.05166 29328 ft 452 kts 84°
2026-04-15 10:28 37.68713 -4.01170 29623 ft 454 kts 84°
2026-04-15 10:28 37.68950 -3.97231 29933 ft 455 kts 83°
2026-04-15 10:29 37.69187 -3.93282 30301 ft 454 kts 83°
2026-04-15 10:29 37.69425 -3.89303 30657 ft 454 kts 83°
2026-04-15 10:29 37.69661 -3.85343 30935 ft 455 kts 83°
2026-04-15 10:29 37.69896 -3.81382 31199 ft 456 kts 83°
2026-04-15 10:30 37.70132 -3.77366 31456 ft 458 kts 83°
2026-04-15 10:30 37.70364 -3.73415 31725 ft 459 kts 83°
2026-04-15 10:30 37.70598 -3.69417 31992 ft 460 kts 83°
2026-04-15 10:30 37.70831 -3.65382 32215 ft 461 kts 83°
2026-04-15 10:31 37.71061 -3.61370 32235 ft 462 kts 83°
2026-04-15 10:31 37.71514 -3.53300 32246 ft 461 kts 83°
2026-04-15 10:32 37.71964 -3.45249 32249 ft 461 kts 83°
2026-04-15 10:32 37.72410 -3.37224 32245 ft 461 kts 83°
2026-04-15 10:33 37.72852 -3.29168 32238 ft 461 kts 84°
2026-04-15 10:33 37.73287 -3.21113 32235 ft 461 kts 83°
2026-04-15 10:34 37.73716 -3.13089 32238 ft 461 kts 83°
2026-04-15 10:34 37.74142 -3.05030 32243 ft 461 kts 83°
2026-04-15 10:35 37.74561 -2.97001 32243 ft 461 kts 83°
2026-04-15 10:35 37.75050 -2.88914 32239 ft 459 kts 79°
2026-04-15 10:36 37.76630 -2.81230 32240 ft 452 kts 64°
2026-04-15 10:36 37.79567 -2.74326 32243 ft 445 kts 50°
2026-04-15 10:37 37.83565 -2.68454 32249 ft 441 kts 41°
2026-04-15 10:37 37.87808 -2.62929 32248 ft 441 kts 41°
2026-04-15 10:38 37.92050 -2.57350 32249 ft 441 kts 41°
2026-04-15 10:38 37.96267 -2.51745 32248 ft 441 kts 41°
2026-04-15 10:39 38.00481 -2.46125 32247 ft 441 kts 41°
2026-04-15 10:39 38.04704 -2.40477 32249 ft 440 kts 41°
2026-04-15 10:40 38.08881 -2.34878 32248 ft 439 kts 42°
2026-04-15 10:40 38.13038 -2.29301 32250 ft 439 kts 42°
2026-04-15 10:41 38.17215 -2.23688 32246 ft 439 kts 42°
2026-04-15 10:41 38.21315 -2.17990 32247 ft 441 kts 45°
2026-04-15 10:42 38.25145 -2.11889 32247 ft 442 kts 47°
2026-04-15 10:42 38.28906 -2.05791 32244 ft 441 kts 47°
2026-04-15 10:43 38.32690 -1.99658 32248 ft 441 kts 47°
2026-04-15 10:43 38.36465 -1.93538 32240 ft 441 kts 47°
2026-04-15 10:44 38.40219 -1.87439 32230 ft 441 kts 47°
2026-04-15 10:44 38.44016 -1.81259 32219 ft 440 kts 47°
2026-04-15 10:45 38.47768 -1.75144 32212 ft 440 kts 47°
2026-04-15 10:45 38.51511 -1.69029 32210 ft 439 kts 47°
2026-04-15 10:46 38.55248 -1.62917 32212 ft 439 kts 47°
2026-04-15 10:46 38.58993 -1.56774 32213 ft 439 kts 47°
2026-04-15 10:47 38.62742 -1.50616 32214 ft 439 kts 47°
2026-04-15 10:47 38.66480 -1.44464 32208 ft 438 kts 47°
2026-04-15 10:48 38.70182 -1.38361 32206 ft 438 kts 47°
2026-04-15 10:48 38.73898 -1.32224 32205 ft 438 kts 47°
2026-04-15 10:49 38.77620 -1.26065 32199 ft 438 kts 47°
2026-04-15 10:49 38.81343 -1.19892 32199 ft 438 kts 47°
2026-04-15 10:50 38.85055 -1.13727 32204 ft 437 kts 47°
2026-04-15 10:50 38.88737 -1.07601 32208 ft 436 kts 47°
2026-04-15 10:51 38.92441 -1.01429 32210 ft 436 kts 47°
2026-04-15 10:51 38.96112 -0.95299 32209 ft 436 kts 47°
2026-04-15 10:52 38.99804 -0.89118 32209 ft 436 kts 47°
2026-04-15 10:52 39.03836 -0.83473 32207 ft 429 kts 36°
2026-04-15 10:53 39.08359 -0.78519 32198 ft 427 kts 35°
2026-04-15 10:53 39.12855 -0.73605 32196 ft 428 kts 35°
2026-04-15 10:54 39.17373 -0.68619 32189 ft 427 kts 36°
2026-04-15 10:54 39.21857 -0.63646 32185 ft 427 kts 36°
2026-04-15 10:55 39.26368 -0.58631 32179 ft 427 kts 36°
2026-04-15 10:55 39.30819 -0.53671 32172 ft 427 kts 36°
2026-04-15 10:56 39.35280 -0.48691 32167 ft 427 kts 36°
2026-04-15 10:56 39.39766 -0.43675 32165 ft 427 kts 36°
2026-04-15 10:57 39.44214 -0.38706 32163 ft 426 kts 35°
2026-04-15 10:57 39.50921 -0.31401 32164 ft 426 kts 35°
2026-04-15 10:58 39.55420 -0.26496 32162 ft 426 kts 35°
2026-04-15 10:58 39.59890 -0.21606 32162 ft 425 kts 35°
2026-04-15 10:59 39.64391 -0.16672 32163 ft 425 kts 35°
2026-04-15 10:59 39.68915 -0.11706 32160 ft 425 kts 36°
2026-04-15 11:00 39.73409 -0.06760 32163 ft 424 kts 35°
2026-04-15 11:00 39.77904 -0.01809 32161 ft 425 kts 35°
2026-04-15 11:01 39.82397 0.03153 32165 ft 424 kts 35°
2026-04-15 11:01 39.86861 0.08089 32165 ft 424 kts 35°
2026-04-15 11:02 39.91354 0.13067 32164 ft 424 kts 35°
2026-04-15 11:02 39.95839 0.18046 32165 ft 424 kts 35°
2026-04-15 11:03 40.00293 0.22999 32168 ft 424 kts 35°
2026-04-15 11:03 40.04761 0.27974 32168 ft 423 kts 35°
2026-04-15 11:04 40.09243 0.32966 32172 ft 424 kts 35°
2026-04-15 11:04 40.13707 0.37931 32171 ft 423 kts 35°
2026-04-15 11:05 40.18158 0.42887 32028 ft 419 kts 35°
2026-04-15 11:05 40.20369 0.45350 31220 ft 425 kts 35°
2026-04-15 11:05 40.22642 0.47876 30092 ft 434 kts 36°
2026-04-15 11:06 40.24927 0.50427 29506 ft 430 kts 36°
2026-04-15 11:06 40.27200 0.52971 28874 ft 428 kts 36°
2026-04-15 11:06 40.29427 0.55465 28136 ft 428 kts 36°
2026-04-15 11:06 40.31699 0.58008 27287 ft 431 kts 36°
2026-04-15 11:07 40.33974 0.60557 26344 ft 435 kts 36°
2026-04-15 11:07 40.36259 0.63118 25533 ft 435 kts 36°
2026-04-15 11:07 40.38563 0.65704 24724 ft 437 kts 37°
2026-04-15 11:07 40.40819 0.68241 23988 ft 439 kts 37°
2026-04-15 11:08 40.43000 0.70694 23540 ft 440 kts 37°
2026-04-15 11:08 40.45282 0.73263 23135 ft 441 kts 37°
2026-04-15 11:08 40.47625 0.75906 22719 ft 436 kts 37°
2026-04-15 11:08 40.49895 0.78471 22030 ft 427 kts 37°
2026-04-15 11:09 40.52119 0.80984 21417 ft 416 kts 37°
2026-04-15 11:09 40.54256 0.83402 20852 ft 406 kts 37°
2026-04-15 11:09 40.56374 0.85796 20293 ft 397 kts 37°
2026-04-15 11:09 40.58439 0.88134 19762 ft 388 kts 38°
2026-04-15 11:10 40.60447 0.90408 19234 ft 380 kts 38°
2026-04-15 11:10 40.62437 0.92663 18710 ft 375 kts 38°
2026-04-15 11:10 40.64368 0.94851 18199 ft 373 kts 38°
2026-04-15 11:10 40.66346 0.97095 17676 ft 372 kts 38°
2026-04-15 11:11 40.68098 0.99625 17059 ft 379 kts 53°
2026-04-15 11:11 40.69401 1.02639 16453 ft 382 kts 59°
2026-04-15 11:11 40.70598 1.05705 15882 ft 382 kts 59°
2026-04-15 11:11 40.71823 1.08825 15350 ft 381 kts 59°
2026-04-15 11:12 40.73049 1.11885 14818 ft 379 kts 59°
2026-04-15 11:12 40.74289 1.14921 14303 ft 376 kts 58°
2026-04-15 11:12 40.75528 1.17923 13773 ft 374 kts 58°
2026-04-15 11:12 40.76785 1.20950 13232 ft 373 kts 58°
2026-04-15 11:13 40.78023 1.23920 12677 ft 372 kts 58°
2026-04-15 11:13 40.79261 1.26888 12117 ft 371 kts 58°
2026-04-15 11:13 40.80492 1.29837 11550 ft 370 kts 58°
2026-04-15 11:13 40.81716 1.32773 11161 ft 363 kts 58°
2026-04-15 11:14 40.82924 1.35674 10885 ft 353 kts 58°
2026-04-15 11:14 40.84078 1.38447 10718 ft 341 kts 58°
2026-04-15 11:14 40.85210 1.41166 10545 ft 330 kts 58°
2026-04-15 11:14 40.86284 1.43750 10352 ft 321 kts 58°
2026-04-15 11:15 40.87340 1.46288 10110 ft 313 kts 58°
2026-04-15 11:15 40.88380 1.48786 9834 ft 308 kts 58°
2026-04-15 11:15 40.89400 1.51242 9536 ft 302 kts 58°
2026-04-15 11:15 40.90388 1.53626 9200 ft 293 kts 58°
2026-04-15 11:16 40.91358 1.55963 8770 ft 288 kts 59°
2026-04-15 11:16 40.92314 1.58268 8303 ft 284 kts 59°
2026-04-15 11:16 40.93243 1.60511 7888 ft 280 kts 59°
2026-04-15 11:16 40.94164 1.62738 7514 ft 274 kts 59°
2026-04-15 11:17 40.95065 1.64919 7179 ft 270 kts 59°
2026-04-15 11:17 40.95942 1.67043 6931 ft 264 kts 60°
2026-04-15 11:17 40.96810 1.69150 6695 ft 260 kts 60°
2026-04-15 11:17 40.97706 1.71191 6446 ft 256 kts 57°
2026-04-15 11:18 40.98682 1.73172 6212 ft 252 kts 56°
2026-04-15 11:18 40.99816 1.74857 5977 ft 244 kts 30°
2026-04-15 11:18 41.01370 1.75610 5799 ft 236 kts 12°
2026-04-15 11:18 41.02974 1.76047 5539 ft 235 kts 11°
2026-04-15 11:19 41.04581 1.76486 5240 ft 235 kts 12°
2026-04-15 11:19 41.06168 1.76968 4966 ft 234 kts 13°
2026-04-15 11:19 41.07747 1.77489 4644 ft 237 kts 14°
2026-04-15 11:19 41.09372 1.78051 4206 ft 244 kts 15°
2026-04-15 11:20 41.10999 1.78628 3952 ft 242 kts 15°
2026-04-15 11:20 41.12604 1.79206 3792 ft 236 kts 15°
2026-04-15 11:20 41.14182 1.79778 3604 ft 232 kts 16°
2026-04-15 11:20 41.15728 1.80340 3421 ft 228 kts 16°
2026-04-15 11:21 41.17222 1.80884 3245 ft 224 kts 16°
2026-04-15 11:21 41.18711 1.81426 3070 ft 220 kts 16°
2026-04-15 11:21 41.20145 1.82024 2939 ft 212 kts 29°
2026-04-15 11:21 41.21196 1.83322 2943 ft 208 kts 56°
2026-04-15 11:22 41.21910 1.84998 2960 ft 210 kts 63°
2026-04-15 11:22 41.22534 1.86760 2948 ft 211 kts 65°
2026-04-15 11:22 41.23131 1.88537 2940 ft 209 kts 65°
2026-04-15 11:22 41.23707 1.90257 2766 ft 203 kts 65°
2026-04-15 11:23 41.24278 1.91945 2480 ft 201 kts 65°
2026-04-15 11:23 41.24848 1.93620 2191 ft 193 kts 65°
2026-04-15 11:23 41.25374 1.95161 1959 ft 179 kts 65°
2026-04-15 11:23 41.25876 1.96630 1703 ft 168 kts 65°
2026-04-15 11:24 41.26350 1.98020 1489 ft 165 kts 66°
2026-04-15 11:24 41.26806 1.99352 1271 ft 153 kts 66°
2026-04-15 11:24 41.27235 2.00609 1070 ft 145 kts 66°
2026-04-15 11:24 41.27647 2.01814 898 ft 144 kts 66°
2026-04-15 11:25 41.28054 2.03014 724 ft 144 kts 67°
2026-04-15 11:25 41.28464 2.04226 541 ft 143 kts 67°
2026-04-15 11:25 41.28885 2.05421 347 ft 143 kts 67°
2026-04-15 11:25 41.29290 2.06619 157 ft 142 kts 68°
2026-04-15 11:26 41.29695 2.07802 25 ft 136 kts 67°
2026-04-15 11:26 41.30006 2.08736 24 ft 88 kts 61°
2026-04-15 11:26 41.30143 2.09295 24 ft 25 kts 95°
2026-04-15 11:26 41.30070 2.09432 24 ft 17 kts 180°
2026-04-15 11:27 41.30027 2.09333 24 ft 13 kts 255°
2026-04-15 11:27 41.29992 2.09215 24 ft 14 kts 244°
2026-04-15 11:27 41.29948 2.09095 24 ft 14 kts 245°
2026-04-15 11:27 41.29904 2.08967 24 ft 15 kts 245°
2026-04-15 11:28 41.29858 2.08832 24 ft 16 kts 245°
2026-04-15 11:28 41.29809 2.08695 24 ft 16 kts 245°
2026-04-15 11:28 41.29761 2.08550 24 ft 17 kts 245°
2026-04-15 11:28 41.29710 2.08401 24 ft 17 kts 246°
2026-04-15 11:29 41.29658 2.08249 24 ft 18 kts 245°
2026-04-15 11:29 41.29606 2.08096 24 ft 18 kts 245°
2026-04-15 11:29 41.29552 2.07940 24 ft 18 kts 245°
2026-04-15 11:29 41.29499 2.07785 24 ft 18 kts 245°
2026-04-15 11:30 41.29425 2.07694 24 ft 15 kts 170°
2026-04-15 11:30 41.29329 2.07745 24 ft 14 kts 155°
2026-04-15 11:30 41.29245 2.07796 24 ft 10 kts 155°
2026-04-15 11:30 41.29186 2.07778 24 ft 9 kts 224°
2026-04-15 11:31 41.29132 2.07777 24 ft 6 kts 157°
2026-04-15 11:31 41.29100 2.07796 24 ft 0 kts 156°